Time,TemperatureF,DewpointF,PressureIn,WindDirection,WindDirectionDegrees,WindSpeedMPH,WindSpeedGustMPH,Humidity,HourlyPrecipIn,Conditions,Clouds,dailyrainin,SoftwareType,DateUTC
2015-01-27 00:03:00,36.6,27.7,29.84,West,274,2.0,7.0,70,0.00,,,0.00,Wunderground v.1.15,2015-01-27 05:03:00,
2015-01-27 00:08:00,36.4,27.5,29.83,SW,225,3.0,7.0,70,0.00,,,0.00,Wunderground v.1.15,2015-01-27 05:08:00,
2015-01-27 00:13:00,36.2,27.7,29.83,WSW,246,0.0,6.0,71,0.00,,,0.00,Wunderground v.1.15,2015-01-27 05:13:00,
2015-01-27 00:19:00,36.0,27.5,29.83,WSW,248,5.0,6.0,71,0.00,,,0.00,Wunderground v.1.15,2015-01-27 05:19:00,
2015-01-27 00:25:00,35.8,27.3,29.83,West,279,0.0,8.0,71,0.00,,,0.00,Wunderground v.1.15,2015-01-27 05:25:00,
2015-01-27 00:30:00,35.6,28.8,29.83,ENE,72,2.0,2.0,76,0.00,,,0.00,Wunderground v.1.15,2015-01-27 05:30:00,
2015-01-27 00:36:00,35.5,27.4,29.83,WSW,257,3.0,3.0,72,0.00,,,0.00,Wunderground v.1.15,2015-01-27 05:36:00,
2015-01-27 00:41:00,35.3,27.5,29.83,SE,130,0.0,4.0,73,0.00,,,0.00,Wunderground v.1.15,2015-01-27 05:41:00,
2015-01-27 00:47:00,35.2,27.4,29.83,WSW,242,2.0,4.0,73,0.00,,,0.00,Wunderground v.1.15,2015-01-27 05:47:00,
2015-01-27 00:53:00,35.0,27.2,29.83,NNW,335,0.0,3.0,73,0.00,,,0.00,Wunderground v.1.15,2015-01-27 05:53:00,
2015-01-27 00:58:00,34.9,27.1,29.83,NW,304,0.0,6.0,73,0.00,,,0.00,Wunderground v.1.15,2015-01-27 05:58:00,
2015-01-27 01:04:00,34.9,27.1,29.83,West,271,0.0,5.0,73,0.00,,,0.00,Wunderground v.1.15,2015-01-27 06:04:00,
2015-01-27 01:09:00,34.8,27.4,29.83,WSW,250,4.0,4.0,74,0.00,,,0.00,Wunderground v.1.15,2015-01-27 06:09:00,
2015-01-27 01:15:00,34.8,27.4,29.83,WSW,249,5.0,7.0,74,0.00,,,0.00,Wunderground v.1.15,2015-01-27 06:15:00,
2015-01-27 01:20:00,34.7,27.3,29.83,NE,52,2.0,6.0,74,0.00,,,0.00,Wunderground v.1.15,2015-01-27 06:20:00,
2015-01-27 01:26:00,34.7,27.3,29.83,West,265,3.0,6.0,74,0.00,,,0.00,Wunderground v.1.15,2015-01-27 06:26:00,
2015-01-27 01:32:00,34.6,27.2,29.83,SSW,201,3.0,5.0,74,0.00,,,0.00,Wunderground v.1.15,2015-01-27 06:32:00,
2015-01-27 01:37:00,34.6,27.2,29.83,SW,236,3.0,5.0,74,0.00,,,0.00,Wunderground v.1.15,2015-01-27 06:37:00,
2015-01-27 01:43:00,34.6,27.2,29.83,WSW,257,7.0,7.0,74,0.00,,,0.00,Wunderground v.1.15,2015-01-27 06:43:00,
2015-01-27 01:48:00,34.7,27.3,29.83,WSW,240,0.0,7.0,74,0.00,,,0.00,Wunderground v.1.15,2015-01-27 06:48:00,
2015-01-27 01:54:00,34.6,27.5,29.83,WSW,250,6.0,7.0,75,0.00,,,0.00,Wunderground v.1.15,2015-01-27 06:54:00,
2015-01-27 01:59:00,34.6,27.5,29.83,South,188,4.0,4.0,75,0.00,,,0.00,Wunderground v.1.15,2015-01-27 06:59:00,
2015-01-27 02:04:00,34.5,27.4,29.83,West,261,6.0,8.0,75,0.00,,,0.00,Wunderground v.1.15,2015-01-27 07:04:00,
2015-01-27 02:09:00,34.3,27.2,29.83,WNW,295,2.0,4.0,75,0.00,,,0.00,Wunderground v.1.15,2015-01-27 07:09:00,
2015-01-27 02:14:00,34.3,27.5,29.83,WNW,290,0.0,7.0,76,0.00,,,0.00,Wunderground v.1.15,2015-01-27 07:14:00,
2015-01-27 02:19:00,34.2,27.4,29.83,SSW,209,0.0,2.0,76,0.00,,,0.00,Wunderground v.1.15,2015-01-27 07:19:00,
2015-01-27 02:24:00,34.2,27.4,29.83,NNE,28,3.0,7.0,76,0.00,,,0.00,Wunderground v.1.15,2015-01-27 07:24:00,
2015-01-27 02:29:00,34.1,27.3,29.83,WSW,252,4.0,5.0,76,0.00,,,0.00,Wunderground v.1.15,2015-01-27 07:29:00,
2015-01-27 02:35:00,34.1,27.3,29.82,WNW,288,1.0,7.0,76,0.00,,,0.00,Wunderground v.1.15,2015-01-27 07:35:00,
2015-01-27 02:40:00,34.2,27.4,29.82,West,281,2.0,4.0,76,0.00,,,0.00,Wunderground v.1.15,2015-01-27 07:40:00,
2015-01-27 02:45:00,34.2,27.4,29.82,WNW,283,2.0,11.0,76,0.00,,,0.00,Wunderground v.1.15,2015-01-27 07:45:00,
2015-01-27 02:50:00,34.3,27.2,29.82,SSW,212,0.0,3.0,75,0.00,,,0.00,Wunderground v.1.15,2015-01-27 07:50:00,
2015-01-27 02:54:00,34.3,27.2,29.82,WSW,246,5.0,10.0,75,0.00,,,0.00,Wunderground v.1.15,2015-01-27 07:54:00,
2015-01-27 02:59:00,34.4,27.3,29.82,West,271,5.0,5.0,75,0.00,,,0.00,Wunderground v.1.15,2015-01-27 07:59:00,
2015-01-27 03:04:00,34.3,27.2,29.82,West,275,4.0,10.0,75,0.00,,,0.00,Wunderground v.1.15,2015-01-27 08:04:00,
2015-01-27 03:09:00,34.3,27.2,29.82,West,262,0.0,3.0,75,0.00,,,0.00,Wunderground v.1.15,2015-01-27 08:09:00,
2015-01-27 03:14:00,34.4,27.3,29.82,SW,217,0.0,11.0,75,0.00,,,0.00,Wunderground v.1.15,2015-01-27 08:14:00,
2015-01-27 03:19:00,34.4,27.3,29.82,WNW,284,6.0,6.0,75,0.00,,,0.00,Wunderground v.1.15,2015-01-27 08:19:00,
2015-01-27 03:25:00,34.5,27.4,29.82,WSW,254,0.0,7.0,75,0.00,,,0.00,Wunderground v.1.15,2015-01-27 08:25:00,
2015-01-27 03:30:00,34.7,27.6,29.82,WSW,252,6.0,6.0,75,0.00,,,0.00,Wunderground v.1.15,2015-01-27 08:30:00,
2015-01-27 03:35:00,34.8,27.7,29.82,SW,219,5.0,8.0,75,0.00,,,0.00,Wunderground v.1.15,2015-01-27 08:35:00,
2015-01-27 03:40:00,34.9,27.8,29.82,West,273,9.0,9.0,75,0.00,,,0.00,Wunderground v.1.15,2015-01-27 08:40:00,
2015-01-27 03:45:00,34.9,27.8,29.81,WSW,244,4.0,11.0,75,0.00,,,0.00,Wunderground v.1.15,2015-01-27 08:45:00,
2015-01-27 03:50:00,35.0,27.5,29.81,NNE,27,4.0,4.0,74,0.00,,,0.00,Wunderground v.1.15,2015-01-27 08:50:00,